Wind_Speed
46 44 40 37 36 36 36 36 35 35 35 35 34 34 35 35 36 35 34 34 35 33 31 28 26 26 27 28 27 25 25 25 25 26 26 25 24 24 24 24 24 24 24 25 26 25 25 25 26 25 26 26 24 18 14 15 16 14 15 16 14 12 13 16 19 21 23 25 26 24 22 21 21 19 18 18 20 22 22 22 21 19 18 18 18 20
46 44 40 36 36 37 37 37 36 35 35 34 33 34 35 36 36 34 34 35 35 33 31 29 28 27 28 29 28 26 26 27 27 27 26 26 25 25 25 25 24 23 24 25 25 25 25 25 26 25 25 25 22 17 16 17 16 16 19 20 16 14 16 16 16 19 22 24 25 24 23 24 24 22 21 21 21 24 26 24 24 21 18 17 17 20
47 44 40 37 37 39 39 38 36 36 35 34 33 33 34 35 35 34 35 36 36 34 32 30 28 29 30 31 30 27 27 29 29 28 27 26 26 27 28 26 24 24 23 23 23 23 24 24 25 24 25 24 20 18 19 19 18 18 19 20 19 17 17 16 17 19 22 24 26 27 27 29 29 26 23 23 22 24 26 25 25 24 20 17 17 20
44 40 37 37 38 39 38 37 37 37 36 35 33 34 35 35 35 36 37 38 37 36 34 31 29 30 31 33 31 29 30 31 30 29 28 27 28 29 29 27 24 23 22 22 22 23 23 23 23 24 24 21 17 16 16 17 18 19 19 20 21 20 18 15 15 17 20 24 28 29 30 30 30 28 25 25 24 24 24 24 26 26 22 19 18 21
40 36 35 37 38 38 38 37 38 38 37 36 34 34 35 35 35 37 38 38 38 37 35 32 31 32 33 34 33 31 32 32 31 30 29 29 29 29 29 26 23 21 21 21 21 22 22 22 21 22 22 20 17 16 17 18 18 19 20 20 20 20 19 18 17 17 18 22 27 30 30 29 29 28 26 27 27 24 23 24 26 27 24 21 20 22
40 37 36 35 37 39 38 38 38 39 38 37 35 35 36 35 36 38 38 39 39 37 35 32 32 33 35 36 34 33 33 33 32 31 30 29 29 29 27 25 22 21 21 21 21 21 21 20 20 20 20 19 18 19 20 20 18 18 18 17 17 17 17 19 20 20 21 23 27 29 30 28 28 28 27 30 30 26 23 24 26 27 26 23 23 23
41 38 36 36 37 39 38 37 38 39 39 38 36 35 37 36 36 38 38 38 39 37 34 32 32 34 36 36 36 35 34 34 33 31 30 30 29 28 26 24 23 22 21 20 20 20 20 19 19 19 19 19 20 19 20 20 18 17 18 17 16 16 17 18 20 20 21 23 26 28 29 28 29 30 29 31 32 30 27 25 26 27 27 26 26 25
41 38 37 37 38 39 39 37 37 38 39 38 36 36 37 35 36 37 38 38 38 36 32 32 34 35 37 37 36 36 35 34 33 32 31 30 29 27 25 24 22 21 19 19 18 19 19 19 20 20 20 20 21 20 21 21 20 20 20 19 18 17 16 18 20 20 20 22 24 26 26 27 29 31 32 31 31 31 30 28 28 28 28 28 27 26
37 36 36 36 37 38 37 36 36 37 38 37 35 36 36 35 36 37 38 37 38 36 32 32 35 37 38 37 36 36 35 34 33 32 31 30 28 27 25 24 22 21 20 19 18 19 19 20 21 22 22 23 22 22 22 23 22 22 22 20 18 17 17 18 21 22 23 23 23 23 24 27 30 31 31 30 29 29 29 29 29 29 29 28 26 26
34 34 35 36 37 37 34 34 36 36 36 35 35 35 36 36 38 39 38 38 38 36 33 33 35 38 39 38 37 37 36 35 33 32 31 30 28 27 25 24 23 22 22 20 20 19 20 21 23 24 24 24 23 23 23 24 24 24 23 21 20 20 20 20 21 24 24 23 22 22 25 29 31 32 32 31 29 29 30 29 28 29 29 27 26 27
36 36 37 38 39 39 36 35 36 36 35 35 34 34 35 37 39 40 39 39 39 38 36 35 37 39 41 40 39 38 37 35 34 33 31 30 29 28 26 25 24 23 22 21 21 20 21 22 24 25 25 24 24 23 23 25 26 26 25 22 21 22 23 23 23 25 24 23 24 28 31 33 33 32 32 33 32 30 31 30 29 30 30 27 26 27
37 38 39 38 38 39 38 37 37 37 37 36 35 35 36 38 41 41 41 41 42 41 38 38 39 41 42 41 40 39 37 35 34 33 32 30 30 29 28 27 26 24 23 23 23 23 23 24 25 26 26 25 24 23 23 25 26 26 26 24 22 22 23 24 25 26 25 25 27 31 34 34 32 31 30 32 33 31 31 32 32 32 32 30 28 28
36 36 36 36 37 38 38 38 38 38 39 38 37 37 39 41 43 43 43 43 44 43 40 40 41 42 43 42 41 39 37 36 35 35 33 31 31 31 30 29 27 25 24 24 25 25 26 25 24 25 25 24 23 23 24 25 26 27 27 26 23 22 23 24 25 27 27 28 28 31 32 31 32 31 29 30 31 30 30 32 32 32 31 31 30 28
36 36 35 35 37 39 39 38 38 38 39 39 38 39 41 43 44 44 44 44 44 43 42 41 41 42 42 41 40 39 38 37 37 36 34 33 33 32 31 29 28 27 26 25 25 26 26 24 23 23 23 24 24 24 24 24 25 26 27 26 24 23 22 23 25 27 29 30 29 30 31 30 31 31 29 30 30 29 30 30 30 30 29 30 30 29
35 36 34 33 34 36 37 37 36 35 36 37 37 38 40 41 41 41 41 42 43 43 42 41 40 41 41 41 39 38 38 38 37 36 35 34 34 32 31 29 28 28 27 26 26 26 25 24 22 22 22 23 23 23 23 23 24 25 26 26 25 24 23 22 24 26 29 30 29 29 29 28 29 30 30 32 32 29 29 29 28 29 29 29 29 30
34 33 32 31 31 32 33 35 35 34 35 36 36 36 38 39 38 38 38 39 41 41 42 41 41 41 41 40 38 36 37 38 37 36 35 34 33 31 30 30 30 29 28 27 27 26 24 24 23 23 22 23 22 22 21 22 23 24 25 26 25 24 24 23 24 25 27 28 26 26 27 26 27 28 29 31 32 30 29 28 28 30 30 29 28 29
34 32 31 32 32 32 33 34 34 33 34 35 36 35 35 36 38 38 39 39 40 42 42 42 43 42 41 40 38 36 36 37 36 36 35 33 32 32 32 32 31 29 27 27 26 25 24 24 24 23 23 23 22 21 21 22 23 24 24 25 25 24 24 25 25 25 26 26 25 25 26 25 26 27 28 31 32 32 30 29 29 30 31 30 29 29
33 32 32 33 34 34 34 35 34 32 32 33 33 32 33 35 37 39 40 41 42 43 43 43 43 43 42 42 39 36 35 36 36 35 34 33 33 33 32 32 30 28 27 26 25 25 24 24 24 23 22 22 22 22 23 23 24 24 24 25 25 24 24 24 25 25 25 25 25 25 25 25 25 25 27 29 31 32 31 31 31 31 32 33 32 30
33 33 33 33 33 34 34 34 33 32 31 30 28 29 32 35 37 38 40 42 42 44 44 44 44 44 44 43 41 37 36 37 36 35 34 34 34 33 33 32 32 30 28 25 24 23 23 24 24 23 23 23 23 24 24 24 24 24 24 24 24 24 23 23 24 25 25 24 23 23 23 23 23 24 25 28 30 31 32 32 31 31 33 34 34 32
34 34 34 34 34 33 33 34 32 32 32 31 29 29 31 34 35 37 38 40 40 42 44 44 44 45 44 44 41 39 38 38 38 37 36 36 36 35 35 34 33 31 28 26 25 24 24 25 25 25 24 24 24 24 24 24 24 24 24 23 22 22 22 22 22 23 24 23 23 23 24 24 24 24 24 26 28 29 31 32 32 30 31 33 35 33
34 35 35 35 34 33 33 33 31 30 31 32 33 34 34 34 36 36 36 38 39 40 40 41 41 41 41 41 40 38 38 38 38 38 37 37 37 36 35 34 32 30 28 28 28 27 26 26 26 25 25 25 24 24 25 25 24 23 22 21 20 20 21 21 21 21 22 23 24 24 25 26 26 26 25 25 26 26 29 31 31 28 29 32 34 33
35 35 35 35 35 34 33 31 29 29 29 30 31 32 33 34 35 35 35 36 37 37 38 38 37 36 36 37 36 35 36 36 36 36 35 36 36 35 34 32 30 29 29 29 29 28 27 27 26 26 25 25 25 25 25 25 24 22 20 19 19 20 21 21 21 21 21 22 23 24 25 25 26 26 25 24 24 24 25 26 25 25 28 31 31 31
36 36 36 35 35 34 33 31 29 29 29 29 30 30 31 31 32 33 33 33 34 35 36 36 36 35 35 35 32 31 32 31 30 31 31 32 33 32 31 30 29 29 29 28 28 28 28 27 26 25 24 24 24 25 25 26 24 22 20 19 20 21 22 22 22 22 22 22 22 23 24 24 25 25 24 23 24 23 21 20 21 23 27 29 27 28
36 37 37 36 35 34 33 32 31 30 30 30 31 31 31 31 31 32 32 32 33 33 34 34 35 34 33 32 29 26 26 25 26 27 28 29 30 29 29 28 27 27 27 26 26 27 26 26 25 24 24 24 24 24 25 25 24 22 21 21 22 22 23 23 22 22 23 23 23 23 24 24 24 24 22 22 23 23 20 18 20 22 25 27 27 27
36 38 38 37 37 36 36 35 34 33 33 33 33 32 32 31 31 31 31 31 32 33 33 32 32 31 28 27 25 23 22 22 23 25 26 28 29 28 28 27 26 25 25 25 26 25 25 25 24 24 24 24 24 24 24 24 24 24 23 23 22 22 22 23 23 23 24 24 24 24 24 24 24 24 23 22 22 22 20 18 18 20 22 24 25 25
36 37 37 37 37 36 37 37 36 35 34 33 33 32 31 30 29 29 28 29 30 30 31 30 29 27 24 23 23 22 21 21 22 23 24 25 26 26 25 25 24 23 24 24 25 25 25 24 24 24 24 24 24 24 24 24 24 24 23 21 21 21 22 22 23 23 24 24 25 25 25 25 25 24 23 22 22 22 21 18 16 17 19 20 22 23
37 37 37 36 35 33 33 33 33 32 31 31 30 29 29 28 27 26 26 27 26 26 27 28 27 26 23 21 21 21 21 21 21 21 22 23 23 22 22 23 23 23 23 24 24 24 24 25 24 23 23 24 24 25 24 24 23 22 20 20 21 21 22 22 23 23 24 24 24 24 25 25 25 25 24 23 22 22 21 19 16 16 17 18 19 22
37 37 37 37 35 33 32 31 31 30 29 29 28 28 27 26 25 25 24 25 25 24 24 24 25 25 24 23 22 22 22 22 21 21 21 21 21 20 21 21 22 23 24 25 25 25 25 26 25 25 24 24 25 25 25 24 23 22 21 21 22 22 23 23 23 23 24 24 23 23 23 24 25 25 25 24 24 23 22 21 19 17 17 17 17 19
35 35 36 36 35 35 33 33 32 31 31 30 28 27 26 25 24 23 22 22 23 23 23 23 24 25 24 24 24 23 23 23 22 21 21 21 21 20 21 22 22 23 25 26 28 28 28 28 28 28 28 27 26 26 26 25 25 24 24 24 24 24 24 24 24 24 23 24 24 24 24 23 24 25 25 24 24 24 23 22 22 21 20 19 18 19
32 33 33 34 34 35 34 34 33 33 32 31 30 29 28 27 26 25 23 23 23 23 23 23 23 23 23 23 24 24 24 24 24 24 24 23 23 23 24 24 25 25 26 27 29 30 31 31 31 31 30 30 29 29 28 27 26 26 26 25 25 24 25 25 25 24 24 24 25 25 25 25 24 24 24 24 24 24 24 23 22 22 22 21 19 19
31 32 32 32 32 33 34 34 34 33 33 32 31 31 31 30 28 27 26 26 25 24 23 23 23 23 23 23 24 24 25 26 26 26 26 25 24 25 25 26 26 26 26 27 28 30 31 31 32 31 31 31 31 30 29 28 27 26 26 26 26 26 27 26 26 25 25 25 26 27 27 27 26 24 23 23 23 24 24 24 23 22 23 23 21 20
29 30 31 31 30 31 32 33 34 34 33 32 31 31 31 31 30 29 29 29 28 26 24 25 25 25 25 26 26 26 26 26 26 26 26 26 25 26 26 26 27 27 27 27 28 29 31 31 32 32 31 32 31 30 30 29 28 28 28 29 30 29 28 28 27 26 25 24 25 26 28 29 29 26 24 23 23 24 24 24 23 23 23 23 23 22
25 27 28 28 29 29 30 31 32 33 34 33 33 32 31 31 30 30 29 29 29 27 26 27 28 29 28 27 26 26 26 27 27 27 28 28 27 27 27 27 28 27 27 27 29 30 31 31 31 31 31 31 31 30 30 30 30 31 32 32 32 32 30 29 28 27 26 25 25 26 28 30 30 29 27 25 24 24 24 25 24 24 23 23 24 24
24 26 26 27 28 29 29 29 30 31 33 34 33 32 32 31 30 30 29 29 30 29 29 29 30 30 29 28 27 28 28 28 29 30 31 30 29 29 29 28 29 28 28 28 30 32 33 33 32 32 32 32 32 31 32 32 33 34 35 35 35 34 33 31 30 29 28 28 28 28 29 30 31 31 30 27 25 24 24 24 25 25 24 24 24 24
21 22 24 26 27 28 29 29 30 31 32 32 31 31 31 31 31 31 31 31 31 31 30 30 30 30 30 29 29 30 30 31 32 32 32 31 31 30 30 30 30 30 30 30 32 33 34 35 35 34 34 34 34 34 34 35 35 36 36 36 36 35 35 33 32 31 30 30 30 30 30 30 31 32 32 30 27 25 24 24 24 25 25 25 25 25
17 18 19 21 23 24 25 26 27 28 29 28 27 28 29 30 30 30 30 30 30 30 29 29 29 29 29 29 29 30 31 31 31 30 30 30 29 30 31 32 33 33 33 33 33 33 34 35 36 36 36 36 36 37 37 37 37 36 36 36 36 35 35 34 33 32 32 31 31 31 31 30 31 32 33 32 30 28 26 25 24 24 25 25 25 26
19 19 20 21 22 22 22 23 25 26 26 26 26 27 28 29 29 29 30 30 29 29 29 29 29 28 27 28 29 30 30 30 30 29 29 29 29 29 30 31 31 31 31 32 32 32 33 34 35 36 36 37 37 37 37 38 38 37 37 37 36 35 35 34 33 32 32 31 31 31 31 30 30 31 32 33 32 30 28 27 26 25 25 25 26 26
23 23 24 24 25 25 24 25 25 26 26 26 27 28 29 28 28 28 29 30 29 28 28 28 29 29 28 28 28 28 28 29 30 30 30 29 29 29 29 29 29 29 28 28 29 30 31 32 33 34 35 36 37 38 38 39 39 38 38 37 37 36 36 35 34 33 32 32 32 32 32 31 31 30 31 32 33 32 30 29 29 28 27 26 26 26
24 25 25 25 25 25 24 25 25 25 26 26 28 28 28 27 27 27 28 28 27 26 25 26 27 27 27 27 26 26 26 27 28 28 28 29 29 29 28 28 28 28 28 28 29 30 30 31 31 33 34 36 37 38 39 39 39 39 39 39 38 38 38 37 37 36 36 35 34 34 33 32 31 31 30 31 33 33 33 31 30 30 29 28 27 27
23 23 23 23 23 23 23 23 23 24 24 25 26 26 26 26 25 25 25 25 24 24 24 24 25 26 26 26 26 25 25 25 25 25 26 27 28 28 28 28 29 30 30 31 31 32 33 33 33 34 35 36 37 37 38 38 39 39 40 40 40 40 40 40 40 40 40 39 38 37 36 34 33 32 31 31 32 33 33 33 32 31 30 29 28 28
21 21 21 21 22 22 22 21 22 22 23 23 23 24 24 24 24 23 23 22 22 22 22 22 23 24 25 25 25 24 24 24 25 25 25 25 26 26 27 27 28 29 30 30 31 32 33 33 34 34 35 36 37 37 37 38 39 39 40 40 41 41 41 41 42 42 41 41 40 40 38 37 36 34 33 32 32 32 32 33 34 32 31 30 29 29
19 20 20 20 20 20 20 20 21 21 21 22 22 23 23 23 23 22 22 21 21 20 20 21 22 22 23 23 23 24 24 24 25 25 25 25 25 25 26 26 26 27 28 29 29 30 31 32 32 32 33 34 35 35 36 37 39 40 41 41 42 42 43 43 43 43 42 41 41 41 40 39 38 38 37 35 34 33 32 32 33 34 32 30 29 29
18 19 19 19 19 19 19 19 20 20 21 21 21 22 22 22 22 22 22 21 20 20 20 21 21 22 22 22 22 23 23 23 24 24 25 25 25 26 27 27 27 27 28 28 28 29 29 30 30 31 31 31 31 32 33 34 35 36 37 39 40 41 41 42 43 43 43 42 42 41 41 41 40 40 40 39 37 35 33 32 32 33 33 31 29 29
18 18 18 19 19 19 20 20 20 20 21 22 22 21 21 21 21 21 21 20 20 20 20 21 21 22 22 22 22 22 22 22 23 23 23 23 23 23 24 24 25 25 26 26 27 27 28 29 30 30 31 31 32 32 33 33 34 34 35 36 37 37 38 38 39 40 41 42 42 42 42 42 42 42 42 41 40 38 36 34 32 32 33 32 30 29
18 18 19 20 20 20 21 21 21 21 22 22 22 21 21 21 20 20 19 19 19 19 19 20 20 21 21 21 21 21 21 21 20 20 20 20 21 21 22 22 23 23 24 24 25 26 26 27 28 28 29 30 32 32 33 34 34 35 35 36 36 37 37 37 37 38 39 40 41 41 41 41 42 42 42 42 40 39 38 37 35 33 33 32 31 30
18 19 20 20 20 21 20 20 20 20 20 20 20 20 20 20 20 19 19 18 18 18 18 19 19 19 19 19 19 19 19 19 19 19 19 19 19 20 20 21 21 22 22 23 23 24 25 26 27 28 29 30 31 31 32 33 34 34 35 35 36 36 37 37 38 38 38 38 39 39 40 40 40 40 41 41 39 39 38 38 37 35 34 33 32 31
18 18 18 18 18 18 17 17 17 17 18 18 18 18 18 18 18 18 18 18 17 17 17 17 16 16 16 16 16 16 16 16 16 16 16 16 17 17 17 18 19 19 20 21 21 22 23 24 25 26 28 29 29 30 31 32 33 34 34 35 35 36 36 36 37 37 37 38 38 39 39 38 38 37 38 39 38 38 37 37 37 36 35 34 33 32
15 15 16 16 16 16 16 15 15 15 16 16 16 16 17 17 17 16 16 17 16 16 15 14 13 12 11 11 12 12 12 12 12 11 11 12 12 13 13 14 15 16 18 19 20 21 22 23 25 26 27 28 29 29 30 31 32 33 34 35 36 36 37 37 37 37 37 37 38 38 38 38 38 37 37 38 38 37 37 36 36 36 35 34 34 33
12 13 14 15 16 17 17 16 15 14 15 15 16 16 17 17 16 16 16 15 14 13 12 12 11 11 10 10 10 10 9 8 7 7 7 7 8 10 11 13 14 16 17 18 19 20 22 23 24 25 26 27 28 29 30 30 31 32 33 34 35 36 36 37 38 38 39 39 39 39 39 39 38 38 37 38 38 38 37 36 35 35 35 35 34 34
11 12 13 13 14 16 17 17 16 15 15 16 16 17 17 16 16 16 15 14 13 11 10 10 10 10 9 9 8 7 6 5 5 5 5 6 8 10 11 13 14 15 16 17 19 20 22 23 24 25 26 27 27 28 29 29 30 31 31 32 33 34 34 35 36 37 38 39 40 40 40 40 40 39 39 38 38 38 38 37 36 35 35 35 35 35
12 13 14 13 12 13 16 17 17 16 15 15 15 15 15 15 14 14 14 13 13 12 10 9 9 9 8 8 7 6 5 4 4 4 5 7 8 9 11 12 14 15 16 18 20 21 22 23 24 25 26 27 27 28 28 28 29 29 30 30 31 31 32 33 34 34 35 36 37 39 40 41 42 42 42 41 40 40 39 38 38 37 36 35 35 35
Wind_Direction
225 225 223 223 225 227 226 225 225 226 226 225 222 221 222 224 226 226 225 226 227 225 223 219 216 222 233 238 236 236 237 236 231 228 230 233 238 243 248 250 254 256 257 261 266 270 273 274 273 274 276 279 282 285 286 287 287 275 274 281 270 257 253 240 234 237 238 242 247 251 254 258 260 262 266 268 269 269 270 272 271 268 265 262 261 262
224 225 224 223 225 226 226 225 225 226 227 226 223 221 221 222 224 225 225 227 228 225 220 216 215 221 231 237 236 235 236 235 231 230 231 235 239 244 246 248 251 254 258 263 267 269 270 272 273 273 273 276 278 278 281 284 284 279 279 279 274 282 291 279 264 256 250 248 250 253 259 264 262 264 271 272 270 269 268 269 271 268 265 265 264 260
224 224 223 223 225 227 226 225 225 225 226 226 223 220 220 220 221 222 223 226 227 223 219 216 216 222 229 235 235 233 234 233 231 231 232 236 240 243 244 246 249 254 259 264 266 267 268 269 272 274 274 277 279 279 280 278 274 274 277 277 276 282 289 291 289 283 275 267 263 262 264 265 261 261 271 276 277 278 275 276 278 273 267 265 264 260
226 227 226 225 225 227 227 225 225 226 225 224 221 217 217 217 217 219 221 224 225 222 220 217 217 223 229 234 234 232 231 231 232 232 234 238 241 244 247 249 253 258 261 263 265 266 268 270 273 275 276 277 276 273 275 274 271 272 275 278 280 280 279 282 285 282 279 275 273 271 270 269 267 266 269 271 276 283 283 282 283 279 271 263 263 264
226 227 228 228 228 228 227 226 225 226 225 223 220 216 215 214 215 217 220 223 225 223 220 219 219 223 228 232 233 231 230 231 232 234 236 239 243 246 250 254 257 261 262 264 266 267 268 270 272 274 275 276 272 267 269 273 275 276 277 278 280 279 278 280 282 277 267 263 265 268 270 272 274 273 270 266 268 275 275 275 277 277 274 265 261 265
224 225 225 227 229 229 228 226 224 225 226 223 219 216 213 211 212 216 219 222 224 224 221 220 222 225 227 230 231 229 230 232 234 236 239 241 244 248 252 256 259 259 260 263 265 268 269 270 270 271 273 275 274 273 273 276 281 281 278 278 279 278 276 276 279 277 269 259 259 265 271 276 280 280 275 267 265 266 266 266 269 271 273 269 262 262
224 225 225 226 228 228 228 226 224 224 225 223 218 215 213 211 211 214 218 221 224 224 222 220 223 226 228 229 228 228 229 232 235 237 240 243 246 250 254 257 259 258 259 261 263 267 271 271 271 273 276 279 279 279 280 282 284 282 279 277 279 282 281 276 274 273 271 265 263 268 276 283 284 284 281 276 272 273 272 269 269 271 273 273 268 264
223 224 225 226 227 228 227 226 225 225 225 222 217 214 213 210 210 213 216 220 223 223 220 219 222 224 226 227 226 226 228 231 235 239 242 246 249 251 255 256 255 256 258 262 265 269 272 275 277 279 282 283 282 282 283 285 283 280 280 280 280 284 284 278 273 271 269 266 264 266 273 279 281 282 283 282 279 277 276 274 272 273 274 274 273 268
222 225 226 226 228 229 227 224 223 224 224 221 215 213 211 209 209 212 216 219 223 223 218 218 222 221 222 224 225 226 229 232 236 240 244 248 251 253 256 258 258 260 264 268 271 274 277 280 283 285 286 286 285 285 284 285 284 282 283 282 281 284 284 279 275 273 271 266 264 265 270 276 279 281 283 283 279 271 271 274 272 272 273 274 272 267
221 224 225 226 226 226 223 220 220 222 222 219 214 212 209 208 210 213 216 219 223 223 218 217 221 221 220 222 224 227 229 232 236 241 244 248 251 254 256 259 263 266 270 274 278 281 284 286 286 286 286 285 285 285 283 284 284 283 283 283 283 284 284 283 281 280 279 272 267 270 278 284 285 281 277 278 278 270 266 271 272 270 270 271 267 263
216 218 221 223 223 221 219 218 217 218 219 216 213 210 208 208 211 214 216 220 222 223 219 217 221 222 222 222 224 227 231 233 235 239 243 247 251 254 255 258 263 265 269 274 278 281 283 284 284 283 281 281 281 281 281 281 281 282 283 283 283 283 284 284 282 283 283 277 270 271 277 284 287 284 276 272 274 273 267 266 271 269 264 262 261 261
213 215 217 219 220 219 218 217 216 216 215 214 210 207 205 207 211 213 215 219 222 224 221 219 221 223 224 224 225 228 231 234 236 239 242 246 251 254 255 259 264 266 269 273 277 280 281 280 279 277 276 276 276 276 276 277 278 279 281 282 282 281 282 282 282 282 284 281 276 274 276 280 282 286 283 275 272 274 272 268 271 270 262 257 256 258
213 216 217 217 217 218 217 216 216 215 214 212 208 205 204 206 210 212 214 218 221 223 222 221 221 223 225 225 226 228 231 235 239 242 244 246 250 253 255 261 267 271 273 276 280 285 287 286 280 275 273 273 273 272 272 273 275 276 279 281 282 281 280 281 281 282 284 284 280 279 279 279 279 282 285 280 274 274 276 274 272 268 262 256 254 253
212 215 216 216 217 217 216 216 216 216 215 213 210 206 206 209 211 212 214 217 221 221 221 222 222 225 227 227 228 228 231 236 240 243 245 247 249 251 256 263 269 274 277 280 284 288 290 289 284 276 272 272 271 270 269 269 272 274 278 282 285 285 283 282 282 281 281 282 283 282 281 281 280 279 279 278 276 273 274 275 270 265 262 257 253 251
216 217 216 214 215 216 216 216 216 217 216 215 213 210 211 214 216 217 217 219 222 222 222 223 224 226 229 230 230 229 231 236 240 243 246 247 249 253 259 265 271 275 278 281 286 289 289 287 283 276 271 270 269 268 268 269 272 275 279 283 287 290 288 285 283 283 282 283 285 285 285 284 280 276 273 272 272 270 269 269 265 261 261 259 255 253
216 219 217 215 215 215 215 216 216 216 215 214 214 213 213 215 217 220 221 222 223 223 222 224 226 228 230 232 232 229 231 236 240 244 247 249 253 257 262 268 273 276 278 281 285 288 287 284 281 277 274 271 269 268 269 271 275 278 280 284 288 290 290 288 287 287 286 287 287 286 287 286 280 274 268 265 266 265 263 264 263 259 258 258 256 253
213 214 214 214 214 214 215 217 216 215 215 216 215 214 214 215 215 216 220 223 224 224 224 226 229 231 233 235 235 231 233 237 242 247 250 253 257 261 265 270 274 276 279 283 284 284 282 280 278 276 275 274 272 271 271 273 275 278 282 285 289 290 291 291 290 288 286 287 287 286 287 287 283 276 267 263 263 262 259 259 261 260 257 254 252 251
213 214 213 213 213 214 215 217 216 212 214 217 218 215 214 216 217 217 218 221 223 225 227 229 231 234 236 238 238 236 238 242 246 249 251 254 258 261 265 269 270 274 280 282 281 279 278 276 273 272 272 272 273 273 273 274 276 280 284 286 288 289 290 290 289 287 285 286 287 287 288 288 286 283 276 269 265 262 258 257 259 260 257 251 246 246
209 212 213 212 212 213 215 217 216 211 209 212 215 217 216 217 219 220 221 223 225 226 228 230 232 235 238 240 241 239 240 244 248 250 251 252 255 259 263 267 270 274 278 277 277 278 277 274 270 267 267 268 270 271 272 275 278 282 285 286 287 287 288 287 286 287 287 287 287 287 289 289 288 289 287 280 272 264 258 257 256 255 253 247 243 244
206 208 210 210 209 210 212 214 214 210 207 205 205 209 215 218 221 223 224 226 228 229 231 232 234 236 239 242 243 243 244 246 248 249 250 252 255 259 264 268 271 273 272 271 275 279 278 273 268 265 264 265 267 268 270 273 277 281 284 285 286 285 286 286 286 287 288 287 286 285 285 288 290 293 295 293 284 269 259 257 254 252 246 239 238 242
204 205 206 207 205 205 208 210 210 208 208 207 206 206 209 214 218 222 224 227 230 232 234 236 237 239 242 245 247 248 249 250 250 251 252 254 257 261 265 268 270 270 269 269 273 276 274 269 266 266 267 267 268 269 270 273 276 280 283 285 285 285 286 287 287 288 288 288 287 284 283 285 287 290 295 298 292 276 262 256 252 248 240 232 234 240
201 202 203 204 203 202 205 206 205 204 205 208 211 212 212 214 217 221 224 228 231 234 236 239 240 241 242 245 247 249 250 251 252 253 254 257 259 262 265 267 267 267 268 270 272 272 269 265 265 267 269 269 270 270 271 273 276 279 282 283 285 286 287 288 287 287 287 288 288 287 286 286 286 289 292 296 295 283 268 257 248 241 233 229 233 240
198 198 198 199 199 199 201 203 202 202 203 206 209 213 217 219 221 224 227 231 235 238 240 243 245 244 244 245 245 247 248 250 251 252 254 256 259 261 263 264 265 265 267 269 269 267 265 263 263 265 267 269 270 270 271 272 274 276 278 281 283 284 284 284 283 284 285 286 287 287 288 289 289 291 292 294 295 287 275 262 248 239 233 232 236 241
197 196 196 197 197 197 200 202 203 204 206 209 212 215 220 224 228 230 233 236 239 243 244 246 248 248 248 247 246 247 249 249 250 250 251 253 256 259 260 261 262 263 264 264 263 262 261 261 263 265 267 268 269 270 270 271 272 274 278 282 283 282 281 281 281 282 283 284 285 284 285 286 287 289 291 292 294 292 283 269 255 245 240 241 243 244
198 197 197 198 198 198 200 204 206 208 210 213 216 220 225 229 233 235 236 238 240 243 245 246 246 246 245 245 245 246 247 248 248 249 250 252 255 257 257 258 259 260 262 261 259 258 258 260 263 266 267 267 268 268 269 270 272 276 279 281 280 279 280 281 281 282 283 284 285 284 283 282 282 284 285 286 289 291 288 277 261 250 246 247 247 246
201 202 202 203 204 205 206 207 209 211 213 216 219 223 226 229 232 234 237 239 240 243 246 247 247 246 243 241 242 243 245 247 247 248 248 250 251 252 252 253 255 258 260 259 258 256 257 260 263 265 265 266 267 267 268 271 273 277 279 278 277 278 279 280 281 281 282 284 286 286 283 280 278 279 281 281 282 284 287 282 266 253 249 251 251 252
201 205 207 207 208 210 213 214 214 214 216 218 221 224 227 229 231 233 237 239 241 242 246 248 248 247 246 244 244 245 247 247 247 247 247 247 248 249 251 253 256 258 259 258 257 256 257 258 259 262 265 267 268 268 270 272 273 274 275 276 278 279 279 280 280 280 281 283 284 286 285 282 279 278 279 280 279 279 281 281 274 259 253 255 259 259
200 204 207 208 208 208 210 212 215 217 217 220 223 225 229 232 235 237 239 241 242 242 243 246 247 247 248 249 248 247 247 247 247 247 248 249 249 251 254 257 259 260 259 257 256 256 256 256 256 259 263 267 269 270 271 271 271 271 274 276 278 279 280 280 280 279 279 280 282 284 284 283 280 279 278 279 280 279 278 279 277 269 260 259 264 267
201 203 206 208 209 210 211 212 215 217 219 221 223 224 228 232 236 238 239 240 241 241 240 243 246 247 248 249 249 248 247 247 248 249 251 252 254 256 258 260 261 262 262 260 258 257 257 257 258 260 263 267 269 270 270 270 270 272 275 277 277 278 280 281 281 280 279 280 281 283 284 284 281 279 279 279 280 280 278 277 277 275 271 267 266 269
203 204 207 209 210 212 215 216 217 219 221 223 225 226 229 230 232 236 238 239 241 241 240 242 245 248 250 251 253 252 252 252 252 253 255 256 258 260 261 261 260 262 263 263 262 261 260 260 260 261 263 266 268 269 269 269 270 272 275 276 277 278 281 283 282 281 281 281 282 284 285 285 283 281 280 280 279 280 279 277 275 274 274 272 269 267
205 206 209 210 211 213 216 218 220 221 224 226 229 231 232 233 233 234 237 241 242 242 241 243 247 250 252 254 255 256 256 256 256 256 257 258 259 261 261 260 259 260 261 262 263 264 263 262 262 262 263 265 267 267 267 268 269 271 273 276 278 279 280 282 282 283 283 283 283 284 285 286 285 284 283 283 281 279 279 278 275 273 272 272 271 269
205 208 211 213 214 216 218 220 222 224 226 229 231 233 234 235 237 237 239 242 245 245 243 244 248 251 253 254 254 255 256 257 259 260 261 262 263 263 262 260 259 259 260 261 263 265 265 264 263 264 265 266 266 265 264 265 267 269 272 276 278 279 279 280 280 281 282 282 283 284 284 285 285 285 285 286 286 283 280 278 277 274 272 272 271 269
203 206 212 214 216 219 221 223 225 226 228 229 230 231 233 235 238 240 240 243 247 250 248 247 248 250 252 253 254 255 257 259 261 264 264 266 266 265 263 261 260 260 260 261 263 265 266 266 265 265 265 265 264 263 263 264 267 270 273 276 277 278 279 279 278 277 277 278 280 283 284 283 284 284 285 285 286 285 282 279 278 276 274 273 271 269
205 207 211 214 217 220 222 224 226 227 229 230 231 233 235 237 239 241 242 244 247 249 249 249 249 250 252 253 254 255 257 260 262 265 266 267 267 266 264 262 260 259 259 260 263 265 266 266 266 266 266 265 264 264 264 266 268 271 274 276 277 278 279 278 277 275 274 275 277 281 282 282 282 282 283 283 284 285 283 280 278 277 276 274 272 269
207 209 212 215 218 221 224 226 227 229 231 232 234 236 238 240 241 242 245 246 247 247 248 249 250 252 253 255 255 257 259 261 263 265 265 266 266 265 264 262 261 259 258 260 264 266 265 264 265 266 266 265 265 266 267 268 270 271 273 276 278 279 280 280 278 276 274 274 275 278 281 281 280 280 280 280 281 283 283 282 279 276 275 275 273 271
214 215 217 219 221 224 227 229 231 233 235 235 236 239 241 243 244 244 245 246 246 247 249 250 251 252 253 255 257 258 259 260 261 262 263 263 263 263 263 263 263 262 261 261 264 266 265 264 264 265 266 266 266 266 268 269 270 271 273 275 278 280 281 281 280 278 276 275 275 277 279 279 279 278 279 279 279 280 282 282 280 276 274 273 273 273
226 229 230 232 234 235 236 238 239 239 240 240 240 242 243 245 245 245 246 247 248 250 252 252 252 253 254 256 257 257 257 257 259 261 262 262 262 263 264 265 266 265 263 261 261 263 264 264 264 264 264 265 265 266 267 268 270 272 274 276 278 279 280 281 280 279 278 277 277 276 277 278 277 276 277 278 278 278 279 281 281 279 275 272 271 271
232 233 235 237 239 239 240 242 243 244 243 242 242 243 244 245 245 246 247 248 249 252 254 254 252 252 253 255 256 256 255 257 260 262 263 263 262 262 264 265 266 265 262 259 258 259 261 262 262 262 263 264 265 267 268 270 271 272 274 275 276 277 278 278 278 278 279 279 279 277 277 277 276 275 275 276 278 278 278 278 279 279 277 274 271 269
235 236 237 239 241 241 241 241 242 243 242 242 243 244 245 246 246 246 247 247 248 249 250 250 249 248 249 251 253 254 255 257 259 261 261 262 262 262 262 262 263 262 261 259 257 258 260 261 262 263 264 264 266 267 269 270 271 272 273 274 275 276 276 276 277 278 279 279 279 279 278 277 277 276 274 274 275 277 277 277 277 277 277 276 273 270
238 239 239 240 240 240 240 240 240 241 241 241 243 244 245 246 246 246 246 247 246 245 244 245 246 247 248 249 251 252 253 255 256 257 258 259 260 261 260 260 260 262 262 262 261 261 262 263 263 263 264 265 265 266 268 270 272 273 273 274 275 276 276 277 277 278 278 278 278 278 278 278 277 276 274 272 272 274 276 277 276 275 274 275 274 271
234 235 236 236 237 238 239 239 240 241 241 241 242 243 244 245 245 246 246 246 245 244 242 242 244 245 246 248 249 251 252 254 255 255 256 258 259 260 260 259 260 262 263 264 264 263 263 264 265 266 266 267 268 269 271 272 272 273 273 274 275 276 277 278 279 279 279 279 278 278 277 277 277 276 275 273 271 270 272 274 276 275 273 272 272 271
231 233 234 235 236 238 239 240 241 241 241 240 240 240 241 242 244 245 245 245 245 244 242 242 242 244 245 247 248 250 252 253 255 255 256 257 258 260 261 262 263 264 265 266 267 266 266 266 267 268 269 270 271 272 273 273 273 274 274 274 275 276 277 278 279 280 280 280 279 278 277 277 276 276 276 275 272 270 269 269 271 274 273 271 269 268
234 236 237 238 239 240 241 241 240 240 240 240 239 238 239 240 242 244 244 244 244 244 244 244 244 244 245 246 248 249 251 252 254 255 257 257 259 261 262 263 265 265 266 267 267 268 268 268 269 269 270 271 272 272 272 273 273 274 274 274 274 274 275 276 276 278 279 279 279 279 278 277 276 275 275 275 273 272 270 268 267 268 271 271 268 265
236 237 238 239 240 240 241 240 240 239 240 240 239 237 238 238 240 242 243 244 244 244 244 245 246 246 247 247 247 248 249 251 252 254 256 258 259 261 263 265 267 269 270 271 272 273 273 274 274 275 276 276 276 276 275 275 275 275 275 275 275 276 276 276 275 275 276 276 277 277 277 276 276 275 275 274 274 272 270 269 267 265 266 268 268 265
237 238 238 239 239 239 239 239 239 238 239 239 239 237 237 237 238 240 241 242 243 243 244 244 246 247 247 246 247 247 248 250 252 254 257 259 261 264 268 271 273 274 276 277 278 278 278 279 280 280 280 279 279 279 280 279 279 278 277 276 276 276 276 277 276 276 275 275 275 275 275 275 274 274 274 274 273 272 271 270 270 268 265 265 265 263
238 238 238 238 238 238 237 237 236 235 235 236 236 236 235 235 236 237 238 238 239 240 241 241 243 244 246 248 249 251 252 253 255 258 261 264 267 269 272 274 275 276 277 278 278 279 279 279 280 280 280 280 280 279 279 279 279 279 279 278 277 275 275 274 274 275 275 274 274 274 273 273 273 273 273 273 272 272 271 270 270 270 268 266 265 263
236 236 236 237 236 235 234 233 232 231 230 230 230 230 231 231 231 232 232 233 234 235 236 238 240 242 245 247 249 251 252 254 255 258 260 263 266 269 271 273 275 277 279 280 280 281 281 280 280 280 280 280 280 279 279 278 278 278 278 278 277 276 275 274 273 273 272 273 273 272 271 271 270 270 270 270 270 270 269 269 268 269 269 269 268 267
233 236 237 238 238 236 233 230 228 227 226 225 223 223 224 224 224 226 227 228 230 233 235 237 238 239 239 242 244 245 246 247 250 253 257 261 266 270 274 278 281 282 284 284 285 286 286 286 285 285 285 284 284 284 283 282 281 280 280 279 279 278 277 277 276 275 273 272 272 272 271 270 268 266 265 265 265 265 266 266 266 266 267 267 268 268
235 238 239 240 241 239 234 229 226 224 223 220 219 218 218 217 218 221 224 226 229 230 230 229 229 230 233 238 240 237 235 236 239 245 253 262 272 280 284 288 290 292 293 294 294 294 294 295 295 294 294 294 294 293 292 291 289 288 286 284 283 282 280 279 279 278 277 276 275 274 273 271 269 267 265 263 262 261 261 262 262 263 263 264 264 265
235 237 237 238 240 239 231 224 221 220 219 217 215 214 214 213 214 217 221 223 220 214 211 214 216 218 221 224 224 219 215 217 228 245 263 277 287 295 300 302 304 305 306 306 306 306 305 305 304 303 303 302 302 301 300 299 298 296 295 293 291 289 287 285 283 281 280 278 277 276 275 274 273 271 269 267 264 262 261 260 260 259 259 259 260 261
244 244 239 234 232 229 221 214 212 212 213 213 212 211 209 208 211 214 215 212 204 199 199 202 201 197 193 190 188 188 194 209 235 264 285 298 307 312 315 316 316 316 315 314 313 312 310 309 308 307 306 305 305 304 303 302 301 301 300 299 297 296 294 292 290 288 285 283 281 279 277 276 274 274 273 272 270 267 265 263 262 261 259 258 257 257
Height
5739 5742 5747 5751 5754 5756 5758 5760 5762 5764 5767 5770 5774 5776 5779 5780 5782 5783 5785 5786 5787 5790 5794 5797 5800 5801 5801 5801 5804 5806 5808 5809 5810 5811 5812 5813 5814 5814 5814 5814 5814 5815 5815 5815 5816 5817 5818 5818 5818 5819 5818 5819 5818 5818 5819 5819 5819 5820 5820 5820 5817 5815 5814 5814 5814 5815 5815 5815 5815 5814 5814 5813 5811 5811 5811 5810 5810 5809 5808 5807 5807 5808 5809 5810 5811 5811
5735 5739 5744 5748 5750 5752 5754 5756 5758 5761 5764 5767 5771 5774 5776 5777 5779 5780 5782 5782 5784 5788 5792 5795 5797 5798 5798 5799 5801 5804 5805 5807 5808 5809 5810 5811 5812 5813 5812 5812 5812 5812 5813 5814 5815 5815 5816 5815 5816 5816 5817 5817 5816 5815 5817 5818 5818 5818 5818 5818 5817 5817 5817 5816 5816 5816 5815 5815 5814 5814 5813 5812 5810 5809 5809 5809 5809 5808 5807 5806 5805 5805 5806 5807 5808 5808
5732 5736 5740 5744 5746 5748 5750 5753 5755 5758 5760 5764 5768 5771 5773 5774 5776 5777 5779 5779 5782 5786 5789 5792 5795 5795 5796 5796 5799 5802 5803 5804 5805 5807 5808 5810 5810 5810 5810 5810 5810 5811 5812 5812 5813 5813 5813 5813 5813 5814 5814 5815 5815 5814 5814 5815 5815 5815 5814 5813 5814 5815 5814 5814 5815 5815 5815 5814 5813 5812 5811 5810 5808 5808 5808 5808 5808 5808 5806 5806 5806 5805 5805 5805 5805 5804
5730 5734 5738 5740 5742 5745 5747 5750 5753 5755 5757 5760 5764 5767 5769 5771 5773 5774 5775 5776 5779 5783 5787 5790 5792 5793 5793 5794 5796 5799 5800 5801 5803 5804 5806 5807 5808 5807 5807 5808 5809 5809 5810 5810 5810 5810 5811 5811 5811 5811 5812 5813 5812 5812 5812 5811 5812 5812 5811 5810 5810 5810 5810 5810 5811 5811 5812 5811 5810 5808 5808 5807 5807 5808 5808 5807 5807 5807 5806 5806 5805 5804 5804 5804 5802 5802
5728 5731 5734 5737 5739 5742 5744 5747 5750 5752 5755 5757 5760 5764 5766 5768 5770 5772 5773 5774 5777 5780 5783 5787 5789 5789 5790 5791 5793 5796 5797 5798 5800 5802 5803 5804 5805 5805 5805 5806 5807 5807 5808 5808 5808 5808 5808 5809 5809 5809 5809 5809 5809 5810 5809 5809 5809 5809 5808 5808 5808 5808 5808 5808 5808 5808 5807 5806 5805 5803 5803 5804 5804 5805 5806 5805 5803 5804 5804 5803 5802 5802 5802 5802 5800 5798
5723 5726 5729 5733 5736 5739 5741 5744 5747 5750 5752 5754 5758 5761 5763 5765 5767 5769 5770 5772 5774 5777 5781 5784 5785 5786 5787 5789 5790 5793 5794 5796 5798 5799 5801 5802 5802 5803 5803 5804 5805 5805 5805 5805 5805 5805 5806 5806 5806 5806 5807 5807 5807 5807 5807 5806 5807 5807 5806 5805 5805 5805 5806 5805 5805 5804 5803 5802 5800 5800 5800 5801 5801 5801 5802 5800 5798 5799 5800 5800 5799 5799 5799 5799 5797 5795
5719 5722 5726 5729 5732 5734 5738 5741 5744 5746 5749 5751 5755 5757 5760 5762 5764 5766 5767 5769 5771 5774 5778 5781 5782 5783 5784 5786 5788 5790 5792 5793 5795 5797 5798 5799 5800 5801 5801 5802 5802 5803 5803 5803 5803 5803 5803 5804 5804 5804 5804 5804 5804 5804 5803 5803 5804 5803 5803 5803 5803 5803 5802 5801 5801 5801 5800 5799 5798 5798 5798 5799 5798 5798 5797 5796 5796 5797 5797 5798 5797 5797 5797 5796 5795 5793
5715 5719 5722 5725 5728 5731 5734 5738 5741 5744 5746 5749 5752 5754 5756 5760 5762 5764 5765 5767 5769 5772 5775 5777 5779 5780 5782 5783 5785 5787 5789 5791 5792 5794 5795 5796 5798 5799 5799 5800 5800 5800 5800 5800 5800 5801 5801 5801 5801 5801 5801 5801 5801 5801 5800 5800 5800 5800 5800 5800 5800 5800 5799 5798 5797 5798 5797 5796 5796 5797 5797 5797 5795 5794 5794 5794 5794 5795 5795 5795 5795 5795 5795 5794 5793 5792
5713 5716 5719 5723 5725 5729 5732 5735 5738 5740 5743 5746 5749 5751 5754 5758 5760 5761 5763 5764 5766 5769 5772 5774 5776 5778 5779 5781 5783 5785 5787 5789 5790 5791 5793 5794 5795 5796 5797 5797 5797 5797 5797 5798 5798 5798 5798 5798 5799 5799 5799 5799 5798 5798 5797 5797 5797 5797 5797 5797 5797 5797 5796 5795 5794 5794 5794 5794 5795 5795 5795 5795 5793 5792 5791 5791 5791 5791 5792 5792 5792 5792 5792 5791 5791 5791
5710 5713 5716 5719 5722 5726 5729 5731 5734 5737 5741 5744 5746 5748 5752 5755 5757 5759 5760 5762 5764 5766 5769 5771 5773 5775 5777 5778 5780 5782 5784 5786 5788 5789 5790 5792 5793 5794 5794 5794 5794 5794 5795 5795 5795 5795 5795 5796 5796 5796 5796 5796 5796 5795 5795 5794 5794 5794 5794 5794 5794 5793 5793 5792 5792 5791 5791 5792 5794 5794 5793 5792 5791 5790 5789 5788 5787 5787 5788 5788 5788 5788 5788 5787 5788 5788
5705 5708 5711 5715 5718 5722 5724 5727 5730 5734 5737 5740 5743 5746 5750 5752 5754 5756 5758 5760 5761 5763 5766 5769 5770 5772 5774 5776 5778 5780 5781 5783 5785 5786 5788 5789 5790 5791 5792 5792 5792 5792 5793 5793 5793 5793 5793 5793 5793 5793 5794 5793 5793 5793 5792 5791 5791 5791 5791 5791 5791 5791 5790 5790 5789 5789 5789 5790 5791 5790 5788 5788 5787 5787 5786 5785 5783 5783 5783 5784 5784 5783 5783 5783 5783 5784
5701 5704 5706 5710 5715 5718 5720 5724 5727 5730 5733 5736 5739 5743 5746 5749 5751 5753 5755 5757 5757 5760 5763 5766 5768 5769 5771 5773 5776 5777 5779 5781 5782 5784 5786 5787 5788 5788 5789 5789 5790 5790 5790 5791 5791 5791 5791 5791 5791 5790 5790 5790 5790 5790 5790 5789 5788 5788 5788 5788 5789 5788 5788 5787 5786 5786 5785 5786 5787 5785 5784 5784 5783 5783 5783 5781 5780 5779 5779 5779 5779 5779 5779 5779 5779 5780
5698 5701 5704 5708 5711 5714 5717 5721 5724 5727 5730 5733 5736 5739 5742 5744 5746 5749 5751 5752 5754 5757 5760 5763 5765 5766 5767 5770 5773 5775 5777 5778 5779 5781 5783 5784 5785 5786 5786 5786 5787 5787 5787 5788 5788 5787 5787 5787 5787 5787 5787 5787 5787 5787 5787 5786 5786 5786 5785 5785 5786 5786 5786 5785 5784 5783 5782 5782 5782 5781 5780 5780 5779 5779 5778 5777 5776 5775 5774 5774 5774 5775 5775 5775 5776 5777
5695 5698 5702 5705 5708 5711 5715 5718 5722 5725 5728 5730 5733 5735 5738 5740 5742 5745 5747 5749 5751 5754 5757 5760 5762 5763 5765 5767 5771 5773 5774 5775 5776 5778 5780 5781 5782 5783 5783 5783 5784 5784 5784 5784 5784 5784 5784 5783 5783 5784 5784 5784 5784 5784 5784 5783 5783 5783 5782 5782 5782 5782 5783 5782 5781 5780 5780 5779 5778 5777 5776 5775 5775 5774 5774 5773 5772 5771 5770 5769 5769 5770 5771 5771 5772 5773
5694 5696 5700 5703 5706 5709 5713 5717 5721 5725 5728 5730 5732 5734 5736 5738 5741 5744 5746 5748 5749 5752 5755 5758 5759 5760 5762 5764 5767 5770 5771 5772 5773 5775 5776 5778 5779 5780 5780 5780 5780 5780 5780 5780 5780 5780 5780 5780 5780 5780 5781 5781 5781 5781 5781 5780 5780 5780 5779 5779 5779 5779 5779 5779 5778 5777 5776 5775 5774 5773 5772 5771 5770 5770 5770 5769 5768 5767 5766 5765 5765 5766 5767 5768 5769 5770
5692 5695 5700 5703 5705 5708 5711 5715 5719 5722 5725 5727 5730 5732 5735 5738 5741 5744 5746 5748 5749 5751 5753 5755 5756 5757 5758 5760 5764 5768 5769 5769 5770 5772 5773 5775 5776 5777 5777 5777 5777 5777 5777 5777 5777 5777 5777 5777 5777 5777 5777 5778 5778 5778 5778 5777 5777 5777 5776 5776 5776 5776 5775 5775 5774 5773 5772 5771 5771 5770 5768 5767 5766 5765 5765 5765 5763 5762 5761 5760 5760 5761 5763 5763 5764 5764
5690 5694 5698 5701 5703 5706 5709 5712 5716 5720 5722 5725 5727 5730 5733 5736 5739 5741 5744 5746 5747 5749 5750 5752 5753 5754 5756 5758 5761 5765 5766 5767 5768 5769 5771 5772 5773 5773 5773 5774 5774 5774 5774 5774 5774 5774 5774 5774 5774 5774 5774 5774 5774 5775 5775 5774 5774 5774 5773 5773 5773 5773 5772 5771 5770 5770 5768 5768 5767 5766 5765 5763 5762 5761 5760 5760 5758 5757 5756 5756 5755 5756 5758 5759 5758 5759
5690 5693 5696 5699 5701 5704 5707 5710 5713 5717 5720 5723 5726 5729 5732 5734 5736 5738 5740 5742 5744 5745 5747 5749 5750 5751 5753 5755 5758 5762 5764 5764 5765 5766 5768 5769 5769 5770 5770 5771 5771 5771 5771 5771 5771 5772 5772 5771 5771 5771 5771 5771 5771 5771 5771 5771 5771 5771 5771 5770 5770 5769 5769 5768 5767 5765 5764 5764 5763 5762 5761 5760 5758 5757 5756 5754 5753 5752 5751 5751 5751 5752 5753 5754 5754 5754
5688 5691 5694 5697 5699 5702 5705 5708 5711 5714 5718 5721 5725 5728 5730 5731 5733 5735 5737 5739 5741 5742 5744 5746 5748 5749 5750 5752 5755 5759 5761 5761 5762 5763 5765 5766 5766 5767 5767 5767 5768 5768 5768 5769 5769 5769 5769 5769 5769 5769 5769 5769 5768 5768 5768 5768 5768 5768 5768 5767 5767 5766 5766 5765 5763 5762 5761 5760 5760 5758 5757 5756 5755 5753 5752 5750 5748 5747 5747 5746 5746 5747 5747 5748 5750 5750
5686 5689 5692 5695 5697 5700 5703 5705 5709 5712 5715 5718 5721 5724 5726 5729 5731 5733 5735 5737 5739 5740 5742 5743 5745 5746 5748 5750 5753 5756 5757 5758 5759 5760 5762 5762 5763 5764 5764 5764 5765 5765 5765 5765 5765 5766 5766 5766 5765 5765 5766 5766 5765 5765 5765 5765 5765 5765 5764 5764 5763 5763 5762 5762 5760 5759 5757 5757 5756 5755 5754 5753 5752 5750 5749 5747 5745 5744 5743 5742 5742 5741 5741 5743 5745 5747
5684 5687 5690 5692 5695 5698 5700 5703 5707 5711 5713 5715 5717 5720 5722 5726 5728 5730 5732 5734 5736 5738 5739 5741 5743 5745 5747 5749 5750 5752 5754 5755 5756 5757 5758 5759 5759 5760 5761 5761 5762 5762 5762 5762 5762 5762 5762 5762 5762 5762 5762 5762 5762 5762 5762 5762 5761 5761 5761 5760 5760 5759 5759 5758 5757 5756 5755 5754 5753 5753 5752 5751 5749 5748 5746 5744 5742 5740 5739 5738 5737 5737 5737 5739 5742 5744
5682 5685 5688 5691 5694 5696 5699 5702 5706 5709 5712 5714 5716 5719 5721 5723 5726 5728 5730 5731 5733 5735 5737 5739 5741 5743 5745 5746 5748 5749 5750 5751 5752 5753 5754 5754 5755 5757 5758 5758 5759 5759 5758 5758 5759 5759 5759 5759 5759 5759 5759 5759 5759 5758 5758 5758 5758 5758 5758 5757 5757 5756 5756 5755 5754 5753 5752 5752 5751 5750 5749 5748 5746 5745 5744 5742 5740 5737 5736 5735 5734 5734 5734 5736 5739 5742
5681 5684 5687 5690 5692 5695 5698 5701 5704 5707 5710 5713 5715 5718 5720 5722 5724 5726 5728 5730 5731 5733 5734 5736 5738 5740 5741 5743 5744 5745 5746 5747 5749 5750 5751 5751 5752 5753 5754 5755 5755 5755 5755 5755 5755 5755 5755 5756 5756 5755 5755 5755 5755 5755 5755 5755 5755 5755 5755 5754 5754 5753 5753 5752 5751 5750 5750 5749 5748 5747 5746 5745 5744 5742 5741 5740 5738 5736 5734 5733 5732 5732 5732 5735 5737 5739
5679 5682 5685 5688 5691 5694 5697 5700 5703 5706 5708 5711 5713 5716 5717 5720 5722 5724 5726 5728 5729 5730 5732 5733 5734 5736 5739 5740 5741 5742 5743 5744 5745 5746 5747 5748 5749 5750 5751 5752 5752 5752 5752 5752 5752 5752 5752 5752 5752 5752 5752 5752 5752 5752 5752 5752 5752 5752 5752 5751 5751 5750 5750 5749 5748 5747 5747 5746 5745 5745 5743 5742 5741 5740 5739 5738 5736 5734 5732 5731 5730 5730 5732 5734 5736 5736
5678 5681 5683 5686 5689 5692 5694 5697 5700 5703 5706 5709 5711 5714 5716 5718 5720 5722 5724 5725 5726 5727 5729 5730 5731 5733 5736 5737 5738 5739 5740 5741 5742 5743 5744 5745 5746 5747 5748 5748 5749 5749 5749 5749 5749 5749 5749 5749 5749 5749 5749 5749 5749 5749 5749 5749 5749 5749 5749 5748 5748 5747 5746 5746 5745 5744 5744 5743 5742 5741 5741 5740 5738 5737 5736 5735 5734 5733 5731 5729 5728 5728 5730 5732 5733 5734
5677 5680 5682 5685 5688 5690 5692 5694 5698 5701 5704 5707 5709 5712 5714 5716 5718 5719 5721 5722 5724 5725 5726 5727 5728 5730 5733 5734 5735 5737 5738 5739 5740 5741 5742 5742 5743 5744 5744 5745 5745 5746 5746 5746 5746 5746 5746 5746 5746 5746 5746 5746 5746 5746 5746 5746 5745 5745 5745 5745 5744 5744 5743 5743 5742 5742 5741 5740 5739 5738 5737 5736 5736 5735 5734 5733 5732 5731 5730 5728 5726 5726 5727 5729 5730 5731
5676 5679 5682 5685 5687 5690 5693 5695 5698 5701 5703 5706 5708 5710 5712 5714 5716 5717 5718 5720 5721 5723 5723 5724 5726 5728 5730 5731 5733 5734 5735 5736 5737 5738 5739 5739 5740 5741 5741 5742 5742 5742 5742 5742 5742 5742 5742 5742 5743 5743 5743 5742 5742 5742 5742 5742 5742 5742 5742 5742 5741 5741 5740 5740 5739 5739 5738 5737 5736 5735 5734 5733 5732 5732 5731 5730 5730 5729 5728 5727 5725 5725 5725 5726 5727 5727
5674 5677 5680 5683 5686 5689 5692 5695 5697 5699 5702 5704 5706 5708 5710 5712 5713 5715 5716 5718 5719 5720 5721 5722 5723 5725 5727 5728 5730 5731 5732 5733 5734 5735 5736 5736 5737 5738 5738 5738 5739 5739 5738 5738 5739 5739 5739 5739 5739 5739 5739 5739 5739 5739 5739 5739 5739 5739 5738 5739 5738 5738 5738 5737 5737 5736 5735 5734 5733 5732 5731 5730 5729 5729 5728 5728 5727 5726 5725 5725 5724 5723 5723 5723 5724 5723
5673 5676 5679 5682 5685 5687 5690 5693 5695 5697 5699 5702 5704 5706 5708 5709 5711 5712 5714 5715 5716 5717 5719 5720 5721 5722 5724 5725 5726 5728 5728 5729 5730 5731 5732 5733 5734 5735 5735 5736 5736 5736 5735 5735 5735 5735 5735 5736 5736 5736 5736 5736 5736 5736 5736 5735 5735 5735 5735 5735 5735 5735 5735 5734 5734 5733 5732 5731 5730 5729 5728 5728 5727 5726 5725 5725 5724 5723 5723 5722 5722 5721 5721 5720 5720 5720
5672 5675 5677 5680 5683 5686 5689 5691 5693 5695 5697 5699 5701 5703 5705 5706 5708 5710 5711 5712 5714 5715 5716 5717 5718 5720 5721 5722 5723 5724 5725 5726 5727 5728 5729 5730 5731 5732 5732 5732 5732 5733 5733 5732 5732 5732 5732 5732 5732 5732 5732 5732 5732 5732 5732 5732 5732 5732 5732 5732 5732 5732 5732 5731 5731 5730 5729 5728 5727 5726 5725 5725 5724 5723 5722 5722 5721 5720 5720 5720 5719 5719 5718 5718 5717 5717
5671 5674 5676 5679 5682 5684 5686 5689 5691 5693 5695 5697 5699 5701 5702 5704 5706 5707 5709 5710 5711 5712 5714 5715 5716 5717 5718 5719 5720 5721 5722 5723 5724 5724 5725 5727 5728 5728 5728 5729 5729 5729 5729 5729 5729 5728 5728 5728 5728 5728 5728 5728 5728 5728 5728 5728 5728 5728 5728 5728 5728 5728 5728 5728 5727 5727 5726 5725 5724 5723 5722 5721 5721 5720 5720 5719 5718 5717 5716 5716 5716 5716 5715 5715 5714 5714
5670 5672 5675 5677 5680 5682 5684 5687 5689 5691 5693 5695 5696 5698 5700 5701 5703 5705 5706 5708 5709 5710 5711 5712 5713 5715 5715 5716 5717 5718 5719 5719 5720 5721 5722 5723 5724 5724 5725 5725 5725 5726 5726 5726 5725 5724 5724 5724 5724 5724 5724 5724 5724 5724 5724 5724 5724 5725 5725 5725 5725 5725 5725 5725 5724 5724 5723 5722 5721 5719 5718 5717 5717 5717 5717 5716 5715 5714 5713 5713 5713 5713 5713 5712 5712 5712
5668 5671 5673 5676 5678 5680 5682 5684 5686 5688 5690 5692 5693 5695 5697 5699 5700 5702 5704 5705 5706 5707 5708 5709 5710 5711 5712 5713 5714 5715 5716 5716 5717 5718 5718 5719 5720 5721 5721 5722 5722 5722 5722 5722 5721 5720 5720 5720 5721 5721 5720 5720 5720 5720 5720 5720 5720 5721 5721 5721 5720 5720 5721 5721 5720 5720 5719 5718 5717 5716 5715 5714 5713 5713 5713 5713 5712 5710 5710 5709 5709 5709 5709 5709 5709 5709
5667 5669 5671 5674 5676 5677 5679 5682 5684 5685 5686 5688 5690 5692 5694 5696 5698 5699 5701 5702 5703 5704 5705 5706 5706 5707 5709 5710 5711 5711 5712 5713 5713 5714 5714 5715 5716 5716 5717 5718 5718 5718 5719 5718 5717 5717 5716 5716 5717 5717 5716 5716 5716 5716 5716 5716 5717 5717 5716 5716 5716 5716 5716 5716 5716 5716 5715 5714 5714 5713 5711 5710 5709 5708 5708 5709 5708 5707 5707 5706 5706 5706 5706 5706 5705 5705
5665 5667 5669 5671 5673 5675 5677 5679 5680 5681 5683 5685 5688 5690 5691 5693 5695 5696 5697 5698 5699 5700 5701 5702 5703 5704 5705 5706 5707 5708 5709 5709 5710 5710 5711 5711 5712 5712 5713 5713 5714 5714 5715 5714 5714 5713 5713 5713 5713 5713 5713 5712 5712 5713 5713 5712 5712 5712 5712 5712 5711 5711 5710 5711 5711 5711 5711 5710 5709 5709 5708 5707 5706 5704 5704 5704 5705 5704 5703 5703 5703 5702 5702 5702 5702 5702
5663 5665 5667 5668 5670 5672 5674 5676 5677 5678 5680 5683 5685 5687 5688 5690 5691 5692 5693 5694 5695 5696 5697 5698 5699 5701 5702 5702 5703 5704 5704 5705 5706 5706 5707 5707 5708 5708 5708 5709 5709 5710 5711 5711 5710 5710 5709 5709 5709 5709 5709 5709 5708 5708 5708 5708 5708 5708 5708 5707 5707 5706 5706 5706 5706 5706 5706 5705 5705 5705 5705 5704 5703 5701 5699 5699 5700 5700 5700 5699 5699 5699 5699 5699 5699 5698
5661 5663 5665 5666 5668 5670 5672 5673 5674 5676 5678 5680 5682 5683 5684 5685 5687 5688 5689 5690 5692 5693 5694 5695 5696 5697 5698 5699 5699 5700 5700 5701 5702 5702 5703 5704 5704 5705 5705 5705 5706 5706 5706 5707 5707 5706 5705 5705 5705 5705 5704 5704 5704 5704 5704 5703 5703 5704 5703 5703 5703 5702 5701 5701 5701 5701 5701 5701 5701 5701 5701 5700 5699 5698 5696 5695 5695 5696 5696 5696 5696 5696 5695 5695 5695 5695
5659 5660 5662 5663 5665 5667 5669 5670 5671 5672 5674 5676 5678 5678 5680 5681 5683 5684 5685 5686 5688 5689 5690 5691 5692 5693 5694 5695 5695 5696 5697 5697 5698 5699 5699 5700 5700 5701 5701 5702 5702 5702 5702 5702 5702 5702 5701 5701 5701 5701 5700 5700 5700 5699 5699 5699 5699 5699 5699 5698 5698 5697 5697 5697 5697 5697 5696 5696 5696 5696 5696 5696 5696 5695 5694 5692 5691 5691 5691 5691 5691 5691 5692 5692 5692 5691
5656 5658 5659 5661 5662 5664 5665 5667 5668 5669 5670 5672 5673 5674 5676 5678 5679 5680 5681 5682 5684 5686 5686 5687 5688 5689 5690 5691 5691 5692 5693 5694 5695 5695 5695 5696 5696 5697 5698 5698 5698 5698 5698 5698 5698 5698 5698 5698 5698 5698 5697 5696 5696 5695 5695 5695 5695 5695 5694 5694 5693 5693 5692 5692 5692 5691 5691 5691 5691 5691 5691 5691 5691 5691 5690 5689 5688 5687 5686 5687 5687 5687 5687 5687 5688 5687
5653 5655 5656 5658 5659 5660 5662 5663 5664 5665 5666 5668 5669 5671 5673 5674 5675 5676 5677 5679 5681 5682 5682 5683 5684 5685 5687 5687 5688 5689 5690 5691 5691 5692 5692 5692 5693 5693 5694 5694 5694 5694 5694 5694 5695 5694 5694 5694 5694 5694 5693 5692 5692 5691 5691 5691 5690 5690 5689 5689 5688 5688 5687 5687 5686 5686 5686 5685 5685 5685 5685 5686 5686 5686 5686 5686 5685 5684 5682 5682 5682 5683 5683 5683 5683 5683
5651 5652 5653 5655 5656 5657 5658 5660 5661 5662 5663 5665 5666 5668 5669 5670 5671 5672 5674 5675 5677 5678 5679 5680 5681 5682 5683 5684 5685 5686 5687 5687 5688 5688 5689 5689 5689 5690 5690 5690 5690 5690 5690 5690 5691 5691 5691 5691 5691 5690 5689 5688 5688 5687 5687 5686 5686 5686 5685 5685 5684 5683 5682 5682 5681 5681 5681 5680 5680 5679 5679 5680 5680 5680 5680 5681 5681 5680 5679 5678 5677 5677 5678 5678 5678 5678
5648 5650 5651 5652 5653 5654 5656 5657 5658 5659 5660 5662 5663 5664 5666 5667 5668 5669 5671 5672 5673 5675 5676 5677 5678 5679 5680 5681 5682 5683 5683 5684 5684 5685 5685 5686 5686 5686 5686 5687 5687 5687 5687 5687 5687 5687 5687 5687 5687 5686 5685 5684 5683 5683 5682 5682 5681 5681 5681 5680 5679 5679 5678 5677 5676 5675 5675 5675 5674 5673 5673 5674 5674 5674 5675 5675 5676 5676 5675 5675 5674 5673 5673 5673 5673 5673
5646 5647 5648 5649 5650 5652 5653 5654 5655 5656 5657 5659 5660 5661 5663 5664 5665 5666 5668 5669 5670 5672 5673 5674 5675 5676 5677 5678 5679 5679 5680 5680 5681 5681 5682 5682 5683 5683 5683 5684 5684 5683 5683 5683 5683 5683 5683 5683 5682 5681 5680 5680 5679 5679 5678 5677 5676 5676 5676 5675 5674 5674 5673 5672 5671 5670 5669 5669 5668 5668 5667 5667 5668 5669 5669 5669 5670 5670 5670 5670 5670 5669 5668 5668 5668 5668
5643 5644 5645 5647 5648 5649 5650 5651 5652 5653 5654 5655 5657 5658 5660 5661 5662 5663 5665 5666 5667 5669 5670 5671 5672 5673 5674 5675 5676 5676 5677 5677 5678 5678 5679 5679 5680 5680 5680 5680 5680 5680 5680 5680 5680 5680 5679 5678 5678 5677 5676 5675 5674 5674 5673 5673 5672 5672 5671 5670 5669 5668 5667 5667 5666 5665 5664 5663 5663 5663 5662 5662 5662 5663 5663 5663 5664 5664 5664 5664 5664 5664 5664 5663 5663 5663
5641 5642 5643 5644 5645 5646 5647 5648 5649 5650 5651 5652 5654 5655 5657 5658 5659 5661 5662 5663 5664 5666 5667 5668 5669 5670 5671 5672 5672 5673 5674 5674 5675 5675 5676 5677 5677 5677 5677 5677 5677 5677 5677 5676 5676 5676 5675 5674 5673 5672 5671 5670 5670 5669 5669 5668 5667 5666 5666 5665 5664 5663 5662 5661 5660 5660 5659 5659 5658 5658 5657 5657 5657 5657 5657 5657 5658 5658 5658 5658 5658 5658 5659 5659 5658 5658
5638 5639 5640 5641 5642 5643 5644 5646 5647 5648 5649 5650 5651 5653 5654 5655 5657 5658 5659 5661 5662 5663 5664 5665 5666 5667 5668 5669 5670 5670 5671 5672 5672 5673 5674 5674 5674 5674 5674 5674 5674 5674 5673 5673 5673 5672 5671 5671 5670 5668 5667 5667 5666 5665 5664 5663 5662 5661 5660 5659 5659 5658 5657 5656 5655 5655 5654 5654 5653 5653 5652 5652 5652 5652 5651 5651 5651 5652 5652 5652 5652 5652 5652 5653 5653 5653
5635 5636 5637 5638 5639 5640 5642 5643 5644 5645 5646 5647 5649 5650 5651 5653 5654 5656 5657 5658 5660 5661 5662 5663 5664 5665 5666 5667 5668 5668 5669 5670 5670 5671 5671 5672 5672 5672 5672 5671 5671 5671 5670 5670 5669 5668 5668 5667 5666 5665 5664 5663 5662 5661 5660 5659 5658 5657 5656 5654 5653 5652 5652 5651 5650 5649 5649 5648 5648 5647 5647 5647 5647 5646 5646 5645 5645 5646 5646 5646 5646 5646 5646 5647 5647 5647
5633 5634 5635 5636 5637 5638 5639 5640 5641 5643 5644 5645 5646 5648 5649 5651 5652 5654 5655 5657 5658 5659 5660 5661 5662 5664 5664 5665 5666 5666 5667 5668 5668 5669 5669 5670 5670 5670 5669 5669 5669 5668 5668 5667 5666 5665 5664 5663 5662 5661 5660 5659 5658 5657 5655 5654 5653 5652 5651 5650 5648 5647 5646 5646 5645 5644 5643 5643 5642 5642 5641 5641 5641 5641 5640 5640 5640 5640 5640 5640 5640 5640 5640 5641 5641 5642
5631 5632 5633 5633 5634 5635 5637 5638 5639 5640 5642 5643 5644 5646 5647 5649 5650 5652 5653 5655 5656 5658 5659 5660 5661 5662 5663 5664 5664 5665 5665 5666 5667 5667 5668 5668 5668 5668 5667 5667 5666 5666 5665 5664 5663 5662 5661 5659 5658 5657 5656 5654 5653 5652 5650 5649 5648 5646 5645 5644 5643 5642 5641 5640 5639 5638 5637 5637 5637 5636 5635 5635 5634 5634 5634 5634 5635 5635 5635 5635 5635 5635 5635 5635 5636 5636
5629 5630 5631 5631 5632 5633 5634 5636 5637 5639 5640 5641 5642 5644 5645 5647 5649 5650 5652 5653 5655 5656 5657 5658 5660 5661 5661 5662 5663 5663 5664 5665 5665 5666 5666 5666 5666 5666 5665 5665 5664 5663 5662 5661 5660 5659 5658 5656 5655 5653 5652 5651 5649 5648 5646 5645 5643 5641 5640 5639 5638 5636 5635 5634 5634 5633 5632 5632 5631 5630 5629 5629 5628 5628 5628 5628 5628 5628 5628 5629 5629 5629 5630 5630 5630 5631
5628 5628 5628 5629 5630 5631 5632 5634 5635 5637 5638 5640 5641 5643 5644 5646 5647 5649 5650 5652 5654 5655 5656 5658 5659 5660 5660 5661 5662 5663 5663 5664 5664 5664 5664 5664 5664 5664 5663 5663 5662 5661 5660 5659 5658 5656 5655 5653 5652 5650 5649 5647 5646 5644 5643 5641 5639 5637 5636 5634 5633 5632 5630 5629 5628 5627 5627 5626 5625 5623 5623 5622 5622 5621 5621 5621 5621 5621 5621 5622 5623 5623 5624 5624 5625 5625